Regional Weather Roundup
Issued by NWS

Home | Current Version | Previous Version | Graphics & Text | Print | Product List | Glossary Off
Versions: 1 2 3 4 5 6 7 8 9 10 11 12 13 14 15 16 17 18 19 20 21 22 23 24 25 26 27 28 29 30 31 32 33 34 35 36 37 38 39 40 41 42 43 44 45 46 47 48 49 50

433
ASUS43 KDMX 231401
RWRIA

WEATHER ROUNDUP FOR IOWA
NATIONAL WEATHER SERVICE DES MOINES IA
800 AM CST MON JAN 23 2017

NOTE: "FAIR" INDICATES FEW OR NO CLOUDS BELOW 12,000 FEET WITH NO
SIGNIFICANT WEATHER AND/OR OBSTRUCTIONS TO VISIBILITY.

* - THESE STATIONS ARE NOT NWS STATIONS...THUS NOT UNDER NWS
QUALITY CONTROL.  THEY ALSO DO NOT REPORT WEATHER SUCH
AS PRECIPITATION OR FOG.

IAZ001>003-012>014-020>022-031>034-043>046-231500-
   NORTHWEST IOWA

CITY           SKY/WX    TMP DP  RH WIND       PRES   REMARKS
CARROLL *      CLOUDY    32  32 100 NW7       29.86R WCI  26
CHEROKEE *     CLOUDY    32  30  92 NW3       29.85R
DENISON *      CLOUDY    32  28  86 NW6       29.85R WCI  26
LE MARS *      CLOUDY    32  28  86 W7        29.89R WCI  26
ORANGE CITY *  CLOUDY    30  28  93 NW6       29.85R WCI  24
SHELDON *      CLOUDY    32  32 100 VRB5      29.83R WCI  27
SIOUX CITY     CLOUDY    33  28  81 W8        29.89R WCI  26
SPENCER          N/A    N/A N/A N/A MISG      29.82S
STORM LAKE *   CLOUDY    32  28  86 NW7       29.84R WCI  26
$$

IAZ055>058-069>071-079>083-090>094-231500-
   SOUTHWEST IOWA

CITY           SKY/WX    TMP DP  RH WIND       PRES   REMARKS
ATLANTIC *     CLOUDY    32  30  93 N6        29.87S WCI  26
AUDUBON *      CLOUDY    30  28  93 NW7       29.86S WCI  23
CLARINDA *     CLOUDY    32  30  93 NW8       29.91R WCI  25
COUNCIL BLFS * CLOUDY    30  30 100 NW5       29.89R WCI  25
CRESTON *      CLOUDY    30  30 100 NW12      29.86F WCI  21
HARLAN  *      CLOUDY    32  32 100 NW9       29.91R WCI  24
LAMONI         CLOUDY    31  28  89 NW10      29.86R WCI  22
RED OAK *      CLOUDY    32  28  86 N7        29.89R WCI  26
SHENANDOAH *   CLOUDY    32  30  93 NW6       29.91R WCI  26
$$

IAZ047>049-059>061-072>074-084-231500-
   CENTRAL IOWA

CITY           SKY/WX    TMP DP  RH WIND       PRES   REMARKS
AMES           CLOUDY    32  31  96 NW6       29.84F WCI  26
ANKENY *       CLOUDY    32  30  93 NW9       29.86S WCI  24
BOONE *        CLOUDY    32  32 100 N9        29.82F WCI  24
CHARITON *     CLOUDY    30  30 100 NW10G16   29.85R FOG     WCI  21
DES MOINES     DRIZZLE   33  30  88 N7        29.85S WCI  27
GRINNELL*      CLOUDY    32  31  98 W5        29.85R FOG     WCI  27
KNOXVILLE *    CLOUDY    32  30  93 NW9       29.83F FOG     WCI  24
MARSHALLTOWN   CLOUDY    32  31  96 N9        29.83R WCI  24
NEWTON *       CLOUDY    32  30  93 NW8       29.83F WCI  25
PELLA *        MOCLDY    32  31  96 W6        29.86F FOG     WCI  26
PERRY *        CLOUDY    32  31  95 NW6       29.86R WCI  26
$$

IAZ004>006-015-016-023>025-035-036-231500-
   NORTH CENTRAL IOWA

CITY           SKY/WX    TMP DP  RH WIND       PRES   REMARKS
ALGONA *       CLOUDY    32  30  93 N5        29.81F WCI  27
CLARION *      CLOUDY    32  32 100 NW10      29.82F WCI  24
ESTHERVILLE    CLOUDY    31  28  89 N13       29.80F WCI  21
FORT DODGE *   CLOUDY    32  27  80 N7        29.83F WCI  26
MASON CITY     CLOUDY    32  28  85 NW14      29.82F WCI  22
FOREST CITY *  CLOUDY    32  32 100 N10       29.81F WCI  24
WEBSTER CITY * CLOUDY    32 N/A N/A NW13      29.81F WCI  22
IOWA FALLS *   CLOUDY    32  30  91 NW9       29.84R WCI  24
$$

IAZ007>011-017>019-026>030-037>042-050>054-066-231500-
   NORTHEAST IOWA

CITY           SKY/WX    TMP DP  RH WIND       PRES   REMARKS
CEDAR RAPIDS   CLOUDY    33  32  96 NW9       29.83R FOG     WCI  25
CHARLES CITY * CLOUDY    32  32 100 NW10G16   29.82S WCI  24
CLINTON *      CLOUDY    36  34  92 NW9       29.81S FOG     WCI  29
DECORAH *      CLOUDY    32  32 100 NW5       29.81R FOG     WCI  27
DUBUQUE        CLOUDY    34  34 100 N9        29.80R FOG     WCI  27
MONTICELLO *   CLOUDY    34  34 100 NW5       29.82R WCI  30
OELWEIN *      CLOUDY    32  32 100 NW7       29.82S FOG     WCI  26
WATERLOO       CLOUDY    32  31  96 NW5       29.83S WCI  27
$$

IAZ064-065-067-068-078-231500-
   EAST CENTRAL IOWA

CITY           SKY/WX    TMP DP  RH WIND       PRES   REMARKS
DAVENPORT      CLOUDY    35  33  92 NW8       29.82R FOG     WCI  29
IOWA CITY      CLOUDY    36  33  89 NW8       29.86R WCI  30
MUSCATINE *    CLOUDY    37  34  87 NW8       29.84S FOG     WCI  31
QUAD CITIES    CLOUDY    37  33  85 NW8       29.82R WCI  31
$$

IAZ062-063-075>077-085>089-095>099-231500-
   SOUTHEAST IOWA

CITY           SKY/WX    TMP DP  RH WIND       PRES   REMARKS
BURLINGTON     CLOUDY    37  35  92 NW8       29.83R WCI  31
FAIRFIELD *    CLOUDY    34  34 100 NW10      29.85R WCI  26
FORT MADISON * CLOUDY    37  36  93 NW9       29.84S FOG     WCI  31
KEOKUK *       CLOUDY    37 N/A N/A NW8       29.84R WCI  31
OSKALOOSA *    CLOUDY    32  31  99 NW5       29.86S FOG     WCI  27
CENTERVILLE *  CLOUDY    30  30 100 CALM      29.87S
OTTUMWA        CLOUDY    33  30  88 W7        29.85R FOG     WCI  27
WASHINGTON *   CLOUDY    36  36 100 N9        29.85S FOG     WCI  29
$$

ABBREVIATIONS USED IN REMARKS
   TC - TEMPERATURES IN CELSIUS
  WCI - WIND CHILL INDEX
   HX - HEAT INDEX
  VSB - VISIBILITY
$$





USA.gov is the U.S. government's official web portal to all federal, state and local government web resources and services.